| time (UTC) | temp F | wind direction | speed knots | gust knots | rain 1hr in | rain 24hr in | rain mn in | humidity % | barometer mb |
| 20260502130633 | 36 | 355 | 0.9 | 3.5 | 0.00 | 0.00 | 0.00 | 71 | 1025.2 |
| 20260502130133 | 35 | 355 | 0.0 | 0.0 | 0.00 | 0.00 | 0.00 | 71 | 1025.1 |
| 20260502123629 | 31 | 355 | 0.0 | 2.6 | 0.00 | 0.00 | 0.00 | 76 | 1025.0 |
| 20260502123131 | 31 | 355 | 0.0 | 0.9 | 0.00 | 0.00 | 0.00 | 75 | 1025.1 |
| 20260502122629 | 31 | 355 | 0.0 | 0.0 | 0.00 | 0.00 | 0.00 | 73 | 1025.0 |
| 20260502122126 | 31 | 355 | 0.0 | 0.0 | 0.00 | 0.00 | 0.00 | 73 | 1025.1 |
| 20260502121633 | 31 | 355 | 0.0 | 0.0 | 0.00 | 0.00 | 0.00 | 71 | 1025.1 |
| 20260502121629 | 31 | 355 | 0.0 | 0.0 | 0.00 | 0.00 | 0.00 | 72 | 1025.1 |
| 20260502120627 | 32 | 355 | 0.0 | 0.0 | 0.00 | 0.00 | 0.00 | 71 | 1025.1 |
| 20260502120126 | 32 | 355 | 0.0 | 0.9 | 0.00 | 0.00 | 0.00 | 70 | 1025.1 |
| 20260502115627 | 33 | 355 | 0.0 | 0.9 | 0.00 | 0.00 | 0.00 | 69 | 1025.1 |
| 20260502115129 | 33 | 355 | 0.0 | 0.9 | 0.00 | 0.00 | 0.00 | 68 | 1025.2 |
| 20260502114630 | 33 | 355 | 0.0 | 0.0 | 0.00 | 0.00 | 0.00 | 67 | 1025.2 |
| 20260502114127 | 34 | 355 | 0.0 | 0.0 | 0.00 | 0.00 | 0.00 | 66 | 1025.2 |
| 20260502113627 | 35 | 355 | 0.0 | 1.7 | 0.00 | 0.00 | 0.00 | 66 | 1025.2 |
| 20260502113127 | 35 | 355 | 0.9 | 2.6 | 0.00 | 0.00 | 0.00 | 65 | 1025.4 |
| 20260502112625 | 36 | 355 | 0.9 | 3.5 | 0.00 | 0.00 | 0.00 | 64 | 1025.4 |
| 20260502112127 | 36 | 355 | 1.7 | 4.3 | 0.00 | 0.00 | 0.00 | 64 | 1025.4 |
| 20260502111625 | 36 | 355 | 1.7 | 5.2 | 0.00 | 0.00 | 0.00 | 64 | 1025.2 |
| 20260502111127 | 36 | 355 | 1.7 | 5.2 | 0.00 | 0.00 | 0.00 | 64 | 1025.4 |
| 20260502110625 | 36 | 355 | 1.7 | 4.3 | 0.00 | 0.00 | 0.00 | 64 | 1025.2 |
| 20260502110127 | 37 | 355 | 0.9 | 4.3 | 0.00 | 0.00 | 0.00 | 63 | 1025.2 |
| 20260502105626 | 37 | 355 | 0.9 | 2.6 | 0.00 | 0.00 | 0.00 | 63 | 1025.2 |
| 20260502105124 | 37 | 355 | 1.7 | 4.3 | 0.00 | 0.00 | 0.00 | 64 | 1025.4 |
| 20260502104623 | 37 | 355 | 1.7 | 5.2 | 0.00 | 0.00 | 0.00 | 64 | 1025.4 |
| 20260502104123 | 36 | 355 | 1.7 | 5.2 | 0.00 | 0.00 | 0.00 | 64 | 1025.4 |
| 20260502103623 | 36 | 355 | 1.7 | 4.3 | 0.00 | 0.00 | 0.00 | 64 | 1025.5 |
| 20260502103129 | 36 | 355 | 2.6 | 5.2 | 0.00 | 0.00 | 0.00 | 65 | 1025.5 |
| 20260502103123 | 36 | 355 | 1.7 | 4.3 | 0.00 | 0.00 | 0.00 | 64 | 1025.4 |
| 20260502102123 | 37 | 355 | 2.6 | 5.2 | 0.00 | 0.00 | 0.00 | 65 | 1025.5 |
| 20260502101625 | 37 | 355 | 2.6 | 5.2 | 0.00 | 0.00 | 0.00 | 64 | 1025.5 |
| 20260502101122 | 37 | 355 | 2.6 | 4.3 | 0.00 | 0.00 | 0.00 | 64 | 1025.5 |
| 20260502100623 | 37 | 355 | 1.7 | 4.3 | 0.00 | 0.00 | 0.00 | 63 | 1025.5 |
| 20260502100122 | 37 | 355 | 1.7 | 7.0 | 0.00 | 0.00 | 0.00 | 63 | 1025.5 |
| 20260502091123 | 36 | 355 | 0.9 | 3.5 | 0.00 | 0.00 | 0.00 | 66 | 1025.4 |
| 20260502090622 | 37 | 355 | 0.0 | 2.6 | 0.00 | 0.00 | 0.00 | 65 | 1025.1 |
| 20260502090120 | 37 | 355 | 0.9 | 2.6 | 0.00 | 0.00 | 0.00 | 65 | 1025.4 |
| 20260502071110 | 36 | 355 | 0.9 | 3.5 | 0.00 | 0.00 | 0.00 | 64 | 1026.0 |
| 20260502070613 | 37 | 355 | 0.9 | 3.5 | 0.00 | 0.00 | 0.00 | 64 | 1026.0 |
| 20260502070112 | 37 | 355 | 0.9 | 5.2 | 0.00 | 0.00 | 0.00 | 63 | 1026.1 |
| 20260502065615 | 38 | 355 | 0.0 | 0.0 | 0.00 | 0.00 | 0.00 | 60 | 1026.1 |
| 20260502065610 | 37 | 355 | 0.9 | 5.2 | 0.00 | 0.00 | 0.00 | 61 | 1026.1 |
| 20260502064607 | 39 | 355 | 0.0 | 0.0 | 0.00 | 0.00 | 0.00 | 59 | 1026.1 |
| 20260502064107 | 39 | 355 | 0.0 | 0.0 | 0.00 | 0.00 | 0.00 | 56 | 1026.0 |
| 20260502063604 | 39 | 355 | 0.0 | 0.0 | 0.00 | 0.00 | 0.00 | 56 | 1026.0 |
| 20260502063106 | 40 | 355 | 0.0 | 0.0 | 0.00 | 0.00 | 0.00 | 57 | 1026.0 |
| 20260502062606 | 40 | 355 | 0.0 | 0.0 | 0.00 | 0.00 | 0.00 | 56 | 1026.0 |
| 20260502062103 | 40 | 355 | 0.0 | 0.0 | 0.00 | 0.00 | 0.00 | 56 | 1026.0 |
| 20260502061602 | 40 | 355 | 0.0 | 0.0 | 0.00 | 0.00 | 0.00 | 55 | 1026.0 |
| 20260502061105 | 40 | 355 | 0.0 | 0.9 | 0.00 | 0.00 | 0.00 | 55 | 1026.0 |
| 20260502060603 | 40 | 355 | 0.0 | 1.7 | 0.00 | 0.00 | 0.00 | 55 | 1026.0 |
| 20260502060105 | 40 | 355 | 0.9 | 1.7 | 0.00 | 0.00 | 0.00 | 55 | 1026.0 |
| 20260502055605 | 40 | 355 | 0.0 | 1.7 | 0.00 | 0.00 | 0.00 | 54 | 1026.1 |
| 20260502055109 | 41 | 355 | 0.0 | 1.7 | 0.00 | 0.00 | 0.00 | 53 | 1026.0 |
| 20260502055103 | 41 | 355 | 0.0 | 1.7 | 0.00 | 0.00 | 0.00 | 55 | 1026.1 |
| 20260502054105 | 42 | 355 | 1.7 | 2.6 | 0.00 | 0.00 | 0.00 | 53 | 1026.0 |
| 20260502053607 | 41 | 355 | 1.7 | 2.6 | 0.00 | 0.00 | 0.00 | 55 | 1026.0 |
| 20260502053601 | 41 | 355 | 1.7 | 2.6 | 0.00 | 0.00 | 0.00 | 54 | 1026.0 |
| 20260502052601 | 41 | 355 | 1.7 | 1.7 | 0.00 | 0.00 | 0.00 | 55 | 1026.0 |
| 20260502052101 | 41 | 355 | 1.7 | 1.7 | 0.00 | 0.00 | 0.00 | 56 | 1026.0 |
| 20260502051601 | 41 | 355 | 1.7 | 1.7 | 0.00 | 0.00 | 0.00 | 56 | 1026.1 |
| 20260502051109 | 41 | 355 | 0.0 | 3.5 | 0.00 | 0.00 | 0.00 | 54 | 1026.1 |
| 20260502051103 | 41 | 355 | 0.9 | 3.5 | 0.00 | 0.00 | 0.00 | 56 | 1026.0 |
| 20260502050738 | 42 | 355 | 0.9 | 2.6 | 0.00 | 0.00 | 0.00 | 52 | 1026.1 |
| 20260502045101 | 42 | 355 | 0.9 | 2.6 | 0.00 | 0.00 | 0.00 | 51 | 1026.1 |
| 20260502044601 | 43 | 355 | 0.9 | 2.6 | 0.00 | 0.00 | 0.00 | 49 | 1026.0 |
| 20260502044104 | 44 | 355 | 0.9 | 2.6 | 0.00 | 0.00 | 0.00 | 47 | 1026.0 |
| 20260502044100 | 44 | 355 | 0.9 | 1.7 | 0.00 | 0.00 | 0.00 | 47 | 1026.0 |
| 20260502043101 | 45 | 355 | 0.9 | 3.5 | 0.00 | 0.00 | 0.00 | 46 | 1026.0 |
| 20260502042559 | 45 | 355 | 0.9 | 3.5 | 0.00 | 0.00 | 0.00 | 44 | 1026.0 |
| 20260502042101 | 46 | 355 | 0.9 | 3.5 | 0.00 | 0.00 | 0.00 | 44 | 1025.8 |
| 20260502041602 | 46 | 355 | 0.9 | 3.5 | 0.00 | 0.00 | 0.00 | 44 | 1026.0 |
| 20260502041059 | 46 | 355 | 1.7 | 3.5 | 0.00 | 0.00 | 0.00 | 43 | 1025.8 |
| 20260502040600 | 46 | 355 | 1.7 | 3.5 | 0.00 | 0.00 | 0.00 | 44 | 1025.8 |
| 20260502040057 | 47 | 355 | 2.6 | 7.0 | 0.00 | 0.00 | 0.00 | 43 | 1025.8 |
| 20260502035559 | 47 | 355 | 2.6 | 7.0 | 0.00 | 0.00 | 0.00 | 42 | 1025.8 |
| 20260502035057 | 47 | 355 | 1.7 | 4.3 | 0.00 | 0.00 | 0.00 | 43 | 1025.7 |
| 20260502034600 | 47 | 355 | 2.6 | 4.3 | 0.00 | 0.00 | 0.00 | 42 | 1025.7 |
| 20260502034057 | 47 | 355 | 2.6 | 4.3 | 0.00 | 0.00 | 0.00 | 42 | 1025.7 |
| 20260502033557 | 47 | 355 | 1.7 | 3.5 | 0.00 | 0.00 | 0.00 | 42 | 1025.7 |
| 20260502033058 | 48 | 355 | 1.7 | 3.5 | 0.00 | 0.00 | 0.00 | 41 | 1025.6 |
| 20260502032700 | 49 | 355 | 2.6 | 4.3 | 0.00 | 0.00 | 0.00 | 40 | 1025.5 |
| 20260502032603 | 49 | 355 | 2.6 | 4.3 | 0.00 | 0.00 | 0.00 | 39 | 1025.5 |
| 20260502032557 | 48 | 355 | 1.7 | 3.5 | 0.00 | 0.00 | 0.00 | 41 | 1025.6 |
| 20260502032358 | 50 | 355 | 1.7 | 3.5 | 0.00 | 0.00 | 0.00 | 38 | 1025.4 |
| 20260502031231 | 50 | 355 | 1.7 | 4.3 | 0.00 | 0.00 | 0.00 | 37 | 1025.2 |
| 20260502030053 | 51 | 355 | 1.7 | 4.3 | 0.00 | 0.00 | 0.00 | 37 | 1025.2 |
| 20260502025553 | 51 | 355 | 1.7 | 4.3 | 0.00 | 0.00 | 0.00 | 36 | 1025.2 |
| 20260502025051 | 51 | 355 | 1.7 | 4.3 | 0.00 | 0.00 | 0.00 | 35 | 1025.1 |
| 20260502024548 | 52 | 355 | 2.6 | 4.3 | 0.00 | 0.00 | 0.00 | 34 | 1025.0 |
| 20260502024048 | 52 | 355 | 2.6 | 4.3 | 0.00 | 0.00 | 0.00 | 34 | 1024.9 |
| 20260502023549 | 53 | 355 | 2.6 | 4.3 | 0.00 | 0.00 | 0.00 | 33 | 1024.9 |
| 20260502023053 | 54 | 355 | 2.6 | 4.3 | 0.00 | 0.00 | 0.00 | 31 | 1024.7 |
| 20260502023049 | 53 | 355 | 2.6 | 4.3 | 0.00 | 0.00 | 0.00 | 32 | 1024.8 |
| 20260502022050 | 54 | 355 | 1.7 | 4.3 | 0.00 | 0.00 | 0.00 | 31 | 1024.7 |
| 20260502021549 | 54 | 355 | 1.7 | 7.0 | 0.00 | 0.00 | 0.00 | 31 | 1024.5 |
| 20260502021051 | 55 | 355 | 1.7 | 7.0 | 0.00 | 0.00 | 0.00 | 30 | 1024.5 |
| 20260502020552 | 55 | 355 | 1.7 | 3.5 | 0.00 | 0.00 | 0.00 | 30 | 1024.5 |
| 20260502020049 | 56 | 355 | 1.7 | 4.3 | 0.00 | 0.00 | 0.00 | 29 | 1024.4 |
| 20260502015722 | 57 | 355 | 1.7 | 7.0 | 0.00 | 0.00 | 0.00 | 28 | 1024.3 |
| 20260502015555 | 56 | 355 | 2.6 | 7.0 | 0.00 | 0.00 | 0.00 | 29 | 1024.4 |
| 20260502015551 | 56 | 355 | 2.6 | 4.3 | 0.00 | 0.00 | 0.00 | 29 | 1024.4 |
| 20260502014048 | 57 | 355 | 1.7 | 7.0 | 0.00 | 0.00 | 0.00 | 28 | 1024.3 |
| 20260502013549 | 58 | 355 | 1.7 | 7.0 | 0.00 | 0.00 | 0.00 | 27 | 1024.3 |
| 20260502013048 | 58 | 355 | 2.6 | 7.8 | 0.00 | 0.00 | 0.00 | 27 | 1024.2 |
| 20260502012549 | 59 | 355 | 2.6 | 7.8 | 0.00 | 0.00 | 0.00 | 26 | 1024.2 |
| 20260502012047 | 59 | 355 | 1.7 | 5.2 | 0.00 | 0.00 | 0.00 | 25 | 1024.2 |
| 20260502011553 | 61 | 355 | 1.7 | 5.2 | 0.00 | 0.00 | 0.00 | 23 | 1024.1 |
| 20260502011546 | 60 | 355 | 1.7 | 4.3 | 0.00 | 0.00 | 0.00 | 24 | 1024.1 |
| 20260502010546 | 62 | 355 | 2.6 | 7.8 | 0.00 | 0.00 | 0.00 | 23 | 1024.1 |
| 20260502010049 | 62 | 355 | 2.6 | 7.8 | 0.00 | 0.00 | 0.00 | 23 | 1024.1 |
| 20260502005555 | 63 | 355 | 2.6 | 7.8 | 0.00 | 0.00 | 0.00 | 23 | 1024.0 |
| 20260502005548 | 62 | 355 | 2.6 | 7.0 | 0.00 | 0.00 | 0.00 | 24 | 1024.0 |
| 20260502004545 | 63 | 355 | 3.5 | 7.8 | 0.00 | 0.00 | 0.00 | 22 | 1023.8 |
| 20260502004045 | 64 | 351 | 3.5 | 8.7 | 0.00 | 0.00 | 0.00 | 24 | 1024.0 |
| 20260502003545 | 64 | 351 | 3.5 | 8.7 | 0.00 | 0.00 | 0.00 | 24 | 1024.0 |
| 20260502003045 | 64 | 350 | 3.5 | 7.8 | 0.00 | 0.00 | 0.00 | 24 | 1024.0 |
| 20260502002546 | 64 | 348 | 2.6 | 7.0 | 0.00 | 0.00 | 0.00 | 24 | 1024.0 |
| 20260502002044 | 64 | 348 | 3.5 | 7.0 | 0.00 | 0.00 | 0.00 | 23 | 1024.0 |
| 20260502001545 | 63 | 348 | 2.6 | 7.0 | 0.00 | 0.00 | 0.00 | 24 | 1024.0 |
| 20260502001045 | 62 | 347 | 2.6 | 5.2 | 0.00 | 0.00 | 0.00 | 25 | 1024.0 |
| 20260502000540 | 61 | 347 | 2.6 | 7.0 | 0.00 | 0.00 | 0.00 | 24 | 1024.0 |
| 20260502000040 | 61 | 347 | 2.6 | 7.0 | 0.00 | 0.00 | 0.00 | 24 | 1024.0 |
| 20260501235543 | 61 | 347 | 2.6 | 7.0 | 0.00 | 0.00 | 0.00 | 25 | 1024.0 |
| 20260501235050 | 61 | 347 | 4.3 | 10.4 | 0.00 | 0.00 | 0.00 | 23 | 1023.8 |
| 20260501235043 | 61 | 347 | 3.5 | 7.0 | 0.00 | 0.00 | 0.00 | 25 | 1024.0 |
| 20260501234540 | 61 | 347 | 4.3 | 8.7 | 0.00 | 0.00 | 0.00 | 24 | 1024.0 |
| 20260501233542 | 62 | 346 | 5.2 | 13.9 | 0.00 | 0.00 | 0.00 | 22 | 1023.8 |
| 20260501233040 | 63 | 346 | 4.3 | 13.9 | 0.00 | 0.00 | 0.00 | 21 | 1024.0 |
| 20260501232542 | 64 | 351 | 5.2 | 11.3 | 0.00 | 0.00 | 0.00 | 22 | 1023.8 |
| 20260501232043 | 65 | 355 | 5.2 | 11.3 | 0.00 | 0.00 | 0.00 | 21 | 1023.8 |
| 20260501231541 | 66 | 0 | 4.3 | 9.6 | 0.00 | 0.00 | 0.00 | 21 | 1023.7 |
| 20260501231050 | 66 | 0 | 3.5 | 11.3 | 0.00 | 0.00 | 0.00 | 21 | 1023.8 |
| 20260501231043 | 66 | 5 | 4.3 | 11.3 | 0.00 | 0.00 | 0.00 | 22 | 1023.7 |
| 20260501230048 | 65 | 350 | 4.3 | 7.8 | 0.00 | 0.00 | 0.00 | 22 | 1023.7 |
| 20260501230040 | 65 | 350 | 3.5 | 8.7 | 0.00 | 0.00 | 0.00 | 24 | 1023.7 |
| 20260501225050 | 65 | 350 | 3.5 | 12.2 | 0.00 | 0.00 | 0.00 | 23 | 1023.8 |
| 20260501225042 | 65 | 350 | 3.5 | 7.8 | 0.00 | 0.00 | 0.00 | 23 | 1023.7 |
| 20260501224717 | 64 | 350 | 3.5 | 12.2 | 0.00 | 0.00 | 0.00 | 23 | 1023.8 |
| 20260501224219 | 63 | 355 | 4.3 | 10.4 | 0.00 | 0.00 | 0.00 | 23 | 1023.8 |
| 20260501223040 | 62 | 355 | 5.2 | 13.0 | 0.00 | 0.00 | 0.00 | 23 | 1024.0 |
| 20260501222540 | 62 | 0 | 4.3 | 13.0 | 0.00 | 0.00 | 0.00 | 22 | 1024.0 |
| 20260501222040 | 63 | 355 | 2.6 | 9.6 | 0.00 | 0.00 | 0.00 | 23 | 1023.8 |
| 20260501221541 | 62 | 0 | 3.5 | 9.6 | 0.00 | 0.00 | 0.00 | 24 | 1024.0 |
| 20260501221050 | 64 | 27 | 3.5 | 11.3 | 0.00 | 0.00 | 0.00 | 21 | 1024.1 |
| 20260501221041 | 62 | 0 | 5.2 | 12.2 | 0.00 | 0.00 | 0.00 | 23 | 1024.0 |
| 20260501220542 | 63 | 0 | 5.2 | 12.2 | 0.00 | 0.00 | 0.00 | 21 | 1024.1 |
| 20260501220042 | 64 | 23 | 4.3 | 11.3 | 0.00 | 0.00 | 0.00 | 21 | 1024.1 |
| 20260501215042 | 63 | 38 | 3.5 | 7.8 | 0.00 | 0.00 | 0.00 | 26 | 1024.1 |
| 20260501214542 | 62 | 37 | 2.6 | 7.8 | 0.00 | 0.00 | 0.00 | 26 | 1024.2 |
| 20260501214040 | 61 | 37 | 3.5 | 7.8 | 0.00 | 0.00 | 0.00 | 24 | 1024.2 |
| 20260501213542 | 61 | 37 | 3.5 | 7.8 | 0.00 | 0.00 | 0.00 | 24 | 1024.3 |
| 20260501213038 | 61 | 37 | 3.5 | 7.8 | 0.00 | 0.00 | 0.00 | 23 | 1024.3 |
| 20260501212539 | 62 | 37 | 4.3 | 14.8 | 0.00 | 0.00 | 0.00 | 24 | 1024.4 |
| 20260501212046 | 63 | 344 | 3.5 | 8.7 | 0.00 | 0.00 | 0.00 | 22 | 1024.3 |
| 20260501212038 | 62 | 36 | 3.5 | 14.8 | 0.00 | 0.00 | 0.00 | 22 | 1024.4 |
| 20260501211036 | 64 | 346 | 3.5 | 8.7 | 0.00 | 0.00 | 0.00 | 21 | 1024.4 |
| 20260501210540 | 63 | 345 | 5.2 | 13.0 | 0.00 | 0.00 | 0.00 | 24 | 1024.5 |
| 20260501210534 | 64 | 345 | 4.3 | 13.0 | 0.00 | 0.00 | 0.00 | 23 | 1024.4 |
| 20260501205537 | 63 | 329 | 6.1 | 18.2 | 0.00 | 0.00 | 0.00 | 22 | 1024.7 |
| 20260501205531 | 63 | 330 | 6.1 | 18.2 | 0.00 | 0.00 | 0.00 | 22 | 1024.4 |
| 20260501204532 | 63 | 344 | 3.5 | 9.6 | 0.00 | 0.00 | 0.00 | 25 | 1024.5 |
| 20260501204032 | 63 | 346 | 2.6 | 7.8 | 0.00 | 0.00 | 0.00 | 25 | 1024.5 |
| 20260501203532 | 62 | 346 | 2.6 | 7.8 | 0.00 | 0.00 | 0.00 | 23 | 1024.5 |
| 20260501203031 | 62 | 345 | 3.5 | 8.7 | 0.00 | 0.00 | 0.00 | 21 | 1024.7 |
| 20260501202533 | 62 | 344 | 5.2 | 13.0 | 0.00 | 0.00 | 0.00 | 21 | 1024.8 |
| 20260501202529 | 62 | 348 | 4.3 | 8.7 | 0.00 | 0.00 | 0.00 | 24 | 1024.7 |
| 20260501202132 | 62 | 344 | 5.2 | 13.0 | 0.00 | 0.00 | 0.00 | 23 | 1024.8 |
| 20260501201030 | 61 | 347 | 4.3 | 11.3 | 0.00 | 0.00 | 0.00 | 25 | 1024.8 |
| 20260501200530 | 61 | 347 | 5.2 | 12.2 | 0.00 | 0.00 | 0.00 | 22 | 1024.9 |
| 20260501200028 | 60 | 339 | 5.2 | 12.2 | 0.00 | 0.00 | 0.00 | 23 | 1024.8 |
| 20260501195530 | 60 | 322 | 4.3 | 11.3 | 0.00 | 0.00 | 0.00 | 27 | 1024.8 |
| 20260501195028 | 60 | 322 | 3.5 | 10.4 | 0.00 | 0.00 | 0.00 | 24 | 1024.8 |
| 20260501194534 | 60 | 321 | 5.2 | 13.9 | 0.00 | 0.00 | 0.00 | 24 | 1024.8 |
| 20260501194528 | 60 | 321 | 4.3 | 10.4 | 0.00 | 0.00 | 0.00 | 24 | 1024.8 |
| 20260501193529 | 61 | 321 | 5.2 | 13.9 | 0.00 | 0.00 | 0.00 | 22 | 1024.9 |
| 20260501193028 | 60 | 307 | 4.3 | 9.6 | 0.00 | 0.00 | 0.00 | 25 | 1024.8 |
| 20260501192528 | 60 | 309 | 4.3 | 11.3 | 0.00 | 0.00 | 0.00 | 25 | 1024.9 |
| 20260501192028 | 60 | 308 | 3.5 | 11.3 | 0.00 | 0.00 | 0.00 | 23 | 1024.9 |
| 20260501191528 | 60 | 313 | 3.5 | 8.7 | 0.00 | 0.00 | 0.00 | 26 | 1024.9 |
| 20260501191034 | 59 | 316 | 4.3 | 8.7 | 0.00 | 0.00 | 0.00 | 23 | 1024.9 |
| 20260501191028 | 59 | 315 | 4.3 | 8.7 | 0.00 | 0.00 | 0.00 | 25 | 1025.0 |
| 20260501190028 | 60 | 318 | 2.6 | 8.7 | 0.00 | 0.00 | 0.00 | 24 | 1025.1 |
| 20260501185526 | 60 | 320 | 1.7 | 3.5 | 0.00 | 0.00 | 0.00 | 25 | 1025.1 |
| 20260501185031 | 60 | 320 | 5.2 | 11.3 | 0.00 | 0.00 | 0.00 | 30 | 1025.1 |
| 20260501185027 | 60 | 320 | 2.6 | 11.3 | 0.00 | 0.00 | 0.00 | 27 | 1025.2 |
| 20260501184033 | 59 | 277 | 3.5 | 8.7 | 0.00 | 0.00 | 0.00 | 28 | 1025.2 |
| 20260501184026 | 59 | 315 | 4.3 | 10.4 | 0.00 | 0.00 | 0.00 | 28 | 1025.1 |
| 20260501183025 | 59 | 277 | 4.3 | 9.6 | 0.00 | 0.00 | 0.00 | 25 | 1025.4 |
| 20260501182524 | 58 | 276 | 4.3 | 10.4 | 0.00 | 0.00 | 0.00 | 25 | 1025.4 |
| 20260501182032 | 58 | 271 | 2.6 | 7.0 | 0.00 | 0.00 | 0.00 | 29 | 1025.4 |
| 20260501182026 | 58 | 274 | 3.5 | 10.4 | 0.00 | 0.00 | 0.00 | 26 | 1025.2 |
| 20260501181026 | 57 | 271 | 2.6 | 8.7 | 0.00 | 0.00 | 0.00 | 29 | 1025.4 |
| 20260501180530 | 57 | 271 | 2.6 | 5.2 | 0.00 | 0.00 | 0.00 | 28 | 1025.5 |
| 20260501180524 | 57 | 271 | 2.6 | 8.7 | 0.00 | 0.00 | 0.00 | 27 | 1025.5 |
| 20260501175524 | 56 | 271 | 3.5 | 7.8 | 0.00 | 0.00 | 0.00 | 30 | 1025.5 |
| 20260501175022 | 56 | 271 | 4.3 | 9.6 | 0.00 | 0.00 | 0.00 | 29 | 1025.5 |
| 20260501174528 | 56 | 272 | 4.3 | 12.2 | 0.00 | 0.00 | 0.00 | 31 | 1025.7 |
| 20260501174521 | 56 | 271 | 5.2 | 12.2 | 0.00 | 0.00 | 0.00 | 28 | 1025.6 |
| 20260501174157 | 55 | 279 | 4.3 | 8.7 | 0.00 | 0.00 | 0.00 | 30 | 1025.8 |
| 20260501173524 | 55 | 279 | 5.2 | 8.7 | 0.00 | 0.00 | 0.00 | 31 | 1025.6 |
| 20260501173022 | 55 | 279 | 5.2 | 8.7 | 0.00 | 0.00 | 0.00 | 29 | 1025.7 |
| 20260501172529 | 55 | 281 | 4.3 | 8.7 | 0.00 | 0.00 | 0.00 | 32 | 1025.7 |
| 20260501172024 | 55 | 279 | 4.3 | 8.7 | 0.00 | 0.00 | 0.00 | 31 | 1025.8 |
| 20260501171023 | 55 | 281 | 3.5 | 8.7 | 0.00 | 0.00 | 0.00 | 32 | 1025.7 |
| 20260501170520 | 55 | 281 | 3.5 | 11.3 | 0.00 | 0.00 | 0.00 | 30 | 1025.7 |
| 20260501170022 | 55 | 281 | 3.5 | 11.3 | 0.00 | 0.00 | 0.00 | 31 | 1025.8 |
| 20260501165520 | 55 | 281 | 4.3 | 9.6 | 0.00 | 0.00 | 0.00 | 34 | 1025.8 |
| 20260501165022 | 54 | 281 | 4.3 | 9.6 | 0.00 | 0.00 | 0.00 | 31 | 1025.8 |
| 20260501164520 | 54 | 277 | 4.3 | 8.7 | 0.00 | 0.00 | 0.00 | 33 | 1025.8 |
| 20260501164020 | 54 | 277 | 4.3 | 8.7 | 0.00 | 0.00 | 0.00 | 35 | 1025.7 |
| 20260501163520 | 54 | 277 | 5.2 | 11.3 | 0.00 | 0.00 | 0.00 | 37 | 1025.7 |
| 20260501163019 | 53 | 277 | 5.2 | 11.3 | 0.00 | 0.00 | 0.00 | 36 | 1025.8 |
| 20260501162528 | 53 | 279 | 4.3 | 10.4 | 0.00 | 0.00 | 0.00 | 35 | 1025.7 |
| 20260501162522 | 53 | 279 | 4.3 | 10.4 | 0.00 | 0.00 | 0.00 | 34 | 1025.8 |
| 20260501161520 | 52 | 282 | 4.3 | 11.3 | 0.00 | 0.00 | 0.00 | 35 | 1025.7 |
| 20260501161020 | 52 | 283 | 5.2 | 11.3 | 0.00 | 0.00 | 0.00 | 39 | 1025.8 |
| 20260501160524 | 52 | 286 | 4.3 | 12.2 | 0.00 | 0.00 | 0.00 | 39 | 1025.8 |
| 20260501160518 | 52 | 286 | 5.2 | 11.3 | 0.00 | 0.00 | 0.00 | 37 | 1025.8 |
| 20260501155522 | 51 | 286 | 5.2 | 12.2 | 0.00 | 0.00 | 0.00 | 39 | 1025.8 |
| 20260501155516 | 51 | 290 | 5.2 | 12.2 | 0.00 | 0.00 | 0.00 | 39 | 1025.8 |
| 20260501155022 | 51 | 290 | 6.1 | 12.2 | 0.00 | 0.00 | 0.00 | 40 | 1025.8 |
| 20260501154016 | 50 | 300 | 7.0 | 10.4 | 0.00 | 0.00 | 0.00 | 39 | 1025.8 |
| 20260501153514 | 50 | 302 | 6.1 | 11.3 | 0.00 | 0.00 | 0.00 | 42 | 1026.0 |
| 20260501153016 | 50 | 303 | 6.1 | 11.3 | 0.00 | 0.00 | 0.00 | 41 | 1026.0 |
| 20260501152512 | 49 | 316 | 5.2 | 8.7 | 0.00 | 0.00 | 0.00 | 43 | 1026.1 |
| 20260501152022 | 49 | 316 | 5.2 | 10.4 | 0.00 | 0.00 | 0.00 | 46 | 1026.1 |
| 20260501152014 | 49 | 316 | 5.2 | 8.7 | 0.00 | 0.00 | 0.00 | 43 | 1026.0 |
| 20260501151012 | 48 | 317 | 5.2 | 10.4 | 0.00 | 0.00 | 0.00 | 47 | 1026.1 |
| 20260501150512 | 48 | 321 | 5.2 | 10.4 | 0.00 | 0.00 | 0.00 | 50 | 1026.1 |
| 20260501150014 | 47 | 327 | 6.1 | 11.3 | 0.00 | 0.00 | 0.00 | 51 | 1026.1 |
| 20260501145518 | 46 | 340 | 6.1 | 12.2 | 0.00 | 0.00 | 0.00 | 55 | 1026.0 |
| 20260501145512 | 46 | 331 | 6.1 | 12.2 | 0.00 | 0.00 | 0.00 | 55 | 1026.0 |
| 20260501144514 | 46 | 351 | 5.2 | 10.4 | 0.00 | 0.00 | 0.00 | 57 | 1026.0 |
| 20260501144009 | 45 | 0 | 4.3 | 8.7 | 0.00 | 0.00 | 0.00 | 60 | 1025.8 |
| 20260501143511 | 44 | 5 | 4.3 | 8.7 | 0.00 | 0.00 | 0.00 | 60 | 1025.8 |
| 20260501143010 | 44 | 5 | 3.5 | 7.8 | 0.00 | 0.00 | 0.00 | 62 | 1026.0 |
| 20260501142509 | 42 | 11 | 3.5 | 7.8 | 0.00 | 0.00 | 0.00 | 65 | 1025.8 |